Weather History for College Park, MD

Change the Weather History Date:

Tuesday, April 23, 2013

  Actual Average Record
Temperature  
Mean Temperature 55 °F -  
Max Temperature 63 °F 70 °F 96 °F (1985)
Min Temperature 46 °F 45 °F 32 °F (1989)
Degree Days  
Heating Degree Days 10    
Growing Degree Days 5 (Base 50)    
Moisture  
Dew Point 43 °F    
Average Humidity 70    
Maximum Humidity 95    
Minimum Humidity 49    
Precipitation  
Precipitation 0.00 in - - ()
Sea Level Pressure  
Sea Level Pressure 30.27 in    
Wind  
Wind Speed 5 mph (NE)    
Max Wind Speed 8 mph    
Max Gust Speed -    
Visibility 10 miles    
Events      
Averages and records for this station are not official NWS values.
T = Trace of Precipitation, MM = Missing Value Source: NWS Daily Summary

Daily Weather History Graph

Daily Weather History Graph

Search for Another Location

Airport:

Trip Planner

Search our weather history database for the weather conditions in past years. The results will help you decide how hot, cold, wet, or windy it might be!

Date:

Astronomy

Apr. 23, 2013 Rise Set
Actual Time 6:19 AM EDT 7:52 PM EDT
Civil Twilight 5:51 AM EDT 8:21 PM EDT
Nautical Twilight 5:17 AM EDT 8:55 PM EDT
Astronomical Twilight 4:41 AM EDT 9:31 PM EDT
Moon 5:46 PM EDT (4/23) 4:45 AM EDT (4/23)
Length of Visible Light 14h 29m
Length of Day
13h 33m
Waxing Gibbous, 94% of the Moon is Illuminated
Apr 23
Waxing Gibbous
Apr 25
Full
May 2
Last Quarter
May 9
New
May 18
First Quarter

Hourly Weather History & Observations

Time (EDT) Temp. Dew Point Humidity Pressure Visibility Wind Dir Wind Speed Gust Speed Precip Events Conditions
12:15 AM 50.0 °F 39.0 °F 66% 30.42 in 10.0 mi NE 6.9 mph - N/A   Overcast
12:35 AM 50.0 °F 39.4 °F 67% 30.41 in 10.0 mi ENE 5.8 mph - N/A   Overcast
12:55 AM 49.5 °F 40.1 °F 70% 30.40 in 10.0 mi ENE 8.1 mph - N/A   Overcast
1:15 AM 49.1 °F 40.3 °F 72% 30.40 in 10.0 mi ENE 4.6 mph - N/A   Overcast
1:35 AM 49.1 °F 40.6 °F 73% 30.39 in 10.0 mi ENE 4.6 mph - N/A   Overcast
1:55 AM 49.1 °F 41.0 °F 74% 30.38 in 10.0 mi ENE 4.6 mph - N/A   Overcast
2:15 AM 49.1 °F 41.2 °F 74% 30.38 in 10.0 mi NE 6.9 mph - N/A   Overcast
2:35 AM 49.1 °F 41.7 °F 76% 30.37 in 10.0 mi NNE 3.5 mph - N/A   Overcast
2:55 AM 49.1 °F 41.9 °F 76% 30.36 in 10.0 mi NNE 4.6 mph - N/A   Overcast
3:15 AM 49.1 °F 42.3 °F 77% 30.35 in 10.0 mi NE 3.5 mph - N/A   Overcast
3:35 AM 49.1 °F 42.4 °F 78% 30.35 in 10.0 mi ENE 3.5 mph - N/A   Overcast
3:55 AM 49.1 °F 42.8 °F 79% 30.35 in 10.0 mi NNE 4.6 mph - N/A   Overcast
4:15 AM 49.1 °F 43.0 °F 79% 30.34 in 10.0 mi Calm Calm - N/A   Overcast
4:35 AM 49.1 °F 43.2 °F 80% 30.33 in 10.0 mi NNE 4.6 mph - N/A   Overcast
4:55 AM 49.1 °F 42.8 °F 79% 30.33 in 10.0 mi NNE 4.6 mph - N/A   Overcast
5:15 AM 48.6 °F 42.3 °F 79% 30.33 in 10.0 mi North 4.6 mph - N/A   Overcast
5:35 AM 48.6 °F 42.8 °F 80% 30.32 in 10.0 mi NNE 4.6 mph - N/A   Overcast
5:55 AM 48.6 °F 43.0 °F 81% 30.32 in 10.0 mi NNE 5.8 mph - N/A   Overcast
6:15 AM 48.6 °F 43.0 °F 81% 30.32 in 10.0 mi North 3.5 mph - N/A   Overcast
6:35 AM 48.6 °F 43.0 °F 81% 30.33 in 10.0 mi North 4.6 mph - N/A   Overcast
6:55 AM 48.7 °F 43.7 °F 83% 30.33 in 7.0 mi NNE 4.6 mph - N/A   Overcast
7:15 AM 48.6 °F 43.3 °F 82% 30.32 in 7.0 mi NNE 6.9 mph - N/A   Overcast
7:35 AM 48.6 °F 44.1 °F 84% 30.32 in 7.0 mi NNE 4.6 mph - N/A   Overcast
7:55 AM 49.1 °F 44.2 °F 83% 30.32 in 7.0 mi NE 3.5 mph - N/A   Overcast
8:15 AM 49.1 °F 44.1 °F 83% 30.33 in 7.0 mi NNE 6.9 mph - N/A   Overcast
8:35 AM 49.1 °F 43.5 °F 81% 30.32 in 7.0 mi NE 3.5 mph - N/A   Overcast
8:55 AM 49.1 °F 42.8 °F 79% 30.32 in 7.0 mi NE 5.8 mph - N/A   Overcast
9:15 AM 49.5 °F 42.8 °F 78% 30.32 in 7.0 mi ENE 6.9 mph - N/A   Overcast
9:35 AM 50.0 °F 42.8 °F 76% 30.32 in 10.0 mi NNE 8.1 mph - N/A   Overcast
9:55 AM 50.4 °F 43.0 °F 76% 30.31 in 7.0 mi NNE 6.9 mph - N/A   Overcast
10:20 AM 50.9 °F 43.0 °F 74% 30.31 in 7.0 mi NNE 4.6 mph - N/A   Overcast
10:40 AM 51.6 °F 43.2 °F 73% 30.30 in 10.0 mi NNE 6.9 mph - N/A   Overcast
11:00 AM 52.5 °F 43.3 °F 71% 30.29 in 10.0 mi North 6.9 mph - N/A   Overcast
11:20 AM 53.6 °F 43.5 °F 69% 30.28 in 10.0 mi East 8.1 mph - N/A   Overcast
11:40 AM 54.7 °F 43.5 °F 66% 30.27 in 10.0 mi ENE 6.9 mph - N/A   Overcast
12:00 PM 55.2 °F 42.8 °F 63% 30.28 in 10.0 mi ENE 4.6 mph - N/A   Overcast
12:20 PM 55.6 °F 43.2 °F 63% 30.28 in 10.0 mi NE 5.8 mph - N/A   Overcast
12:40 PM 54.7 °F 42.4 °F 63% 30.27 in 10.0 mi Calm Calm - N/A   Overcast
1:00 PM 56.3 °F 43.3 °F 62% 30.26 in 10.0 mi NNE 4.6 mph - N/A   Overcast
1:20 PM 56.7 °F 43.3 °F 61% 30.26 in 10.0 mi NE 5.8 mph - N/A   Overcast
1:40 PM 56.8 °F 43.2 °F 60% 30.25 in 10.0 mi West 3.5 mph - N/A   Overcast
2:00 PM 57.6 °F 43.2 °F 59% 30.25 in 10.0 mi West 4.6 mph - N/A   Overcast
2:20 PM 58.3 °F 43.2 °F 57% 30.25 in 10.0 mi North 4.6 mph - N/A   Overcast
2:35 PM 59.5 °F 44.4 °F 57% 30.24 in 10.0 mi North 6.9 mph - N/A   Overcast
2:55 PM 59.4 °F 43.9 °F 57% 30.24 in 10.0 mi North 3.5 mph - N/A   Overcast
3:40 PM 61.3 °F 45.5 °F 56% 30.20 in 10.0 mi NE 3.5 mph - N/A   Scattered Clouds
4:00 PM 61.3 °F 44.4 °F 54% 30.19 in 10.0 mi Calm Calm - N/A   Clear
4:20 PM 61.9 °F 44.8 °F 53% 30.18 in 10.0 mi ENE 3.5 mph - N/A   Clear
4:40 PM 62.4 °F 43.9 °F 51% 30.17 in 10.0 mi Calm Calm - N/A   Clear
5:00 PM 62.6 °F 45.0 °F 52% 30.17 in 10.0 mi NNW 3.5 mph - N/A   Clear
5:40 PM 62.8 °F 43.9 °F 50% 30.15 in 10.0 mi North 3.5 mph - N/A   Clear
6:00 PM 63.0 °F 44.4 °F 51% 30.15 in 10.0 mi Calm Calm - N/A   Clear
6:40 PM 62.8 °F 43.3 °F 49% 30.14 in 10.0 mi Calm Calm - N/A   Clear
7:00 PM 62.4 °F 43.2 °F 49% 30.15 in 10.0 mi Calm Calm - N/A   Clear
7:20 PM 61.9 °F 43.3 °F 51% 30.15 in 10.0 mi Calm Calm - N/A   Clear
7:40 PM 59.2 °F 44.6 °F 58% 30.15 in 10.0 mi ESE 4.6 mph - N/A   Clear
7:55 PM 58.5 °F 44.6 °F 60% 30.15 in 10.0 mi ESE 4.6 mph - N/A   Clear
8:20 PM 57.4 °F 44.2 °F 62% 30.15 in 10.0 mi ESE 3.5 mph - N/A   Clear
8:40 PM 56.3 °F 44.1 °F 64% 30.15 in 10.0 mi Calm Calm - N/A   Clear
9:00 PM 55.2 °F 43.9 °F 66% 30.16 in 10.0 mi Calm Calm - N/A   Clear
9:20 PM 54.1 °F 44.1 °F 69% 30.17 in 10.0 mi Calm Calm - N/A   Clear
9:40 PM 51.6 °F 45.7 °F 80% 30.17 in 10.0 mi Calm Calm - N/A   Clear
10:00 PM 50.9 °F 45.0 °F 80% 30.17 in 10.0 mi Calm Calm - N/A   Clear
10:20 PM 49.3 °F 45.1 °F 86% 30.16 in 10.0 mi Calm Calm - N/A   Clear
10:40 PM 48.4 °F 45.1 °F 89% 30.15 in 10.0 mi Calm Calm - N/A   Clear
11:00 PM 48.0 °F 45.5 °F 91% 30.15 in 10.0 mi Calm Calm - N/A   Clear
11:20 PM 47.1 °F 45.0 °F 92% 30.14 in 10.0 mi Calm Calm - N/A   Clear
11:40 PM 46.4 °F 45.0 °F 95% 30.14 in 10.0 mi Calm Calm - N/A   Clear